DAL6540 PHOG-PHNL

Flight info

Callsign DAL6540
Flight time 0h 29m
Altitude 16000
Route MAUI5 OGG LNY JULLE5
Aircraft A319/M-SDE3FGHIRWY/LB1

Departure

Time 2026-04-24 22:32
Airport Kahului International Airport (PHOG)

Arrival

Time 2026-04-24 23:02
Airport Daniel K. Inouye International Airport (PHNL)
Time Latitude Longitude Altitude Speed Heading
2026-04-24 22:25 20.89253 -156.43704 53 ft 0 kts 305°
2026-04-24 22:27 20.89247 -156.43694 50 ft 3 kts 304°
2026-04-24 22:27 20.89235 -156.43674 49 ft 4 kts 304°
2026-04-24 22:28 20.89220 -156.43651 53 ft 3 kts 292°
2026-04-24 22:28 20.89220 -156.43634 50 ft 2 kts 244°
2026-04-24 22:28 20.89215 -156.43636 51 ft 0 kts 215°
2026-04-24 22:30 20.89202 -156.43646 54 ft 12 kts 215°
2026-04-24 22:30 20.89100 -156.43664 57 ft 18 kts 189°
2026-04-24 22:31 20.89005 -156.43724 62 ft 0 kts 205°
2026-04-24 22:31 20.88993 -156.43721 58 ft 2 kts 126°
2026-04-24 22:31 20.88984 -156.43702 61 ft 2 kts 124°
2026-04-24 22:31 20.88961 -156.43664 58 ft 10 kts 122°
2026-04-24 22:32 20.88969 -156.43585 62 ft 10 kts 31°
2026-04-24 22:32 20.89266 -156.43372 49 ft 106 kts 35°
2026-04-24 22:32 20.90084 -156.42759 323 ft 163 kts 33°
2026-04-24 22:32 20.91037 -156.42040 1542 ft 174 kts 33°
2026-04-24 22:33 20.92146 -156.41639 2845 ft 181 kts 358°
2026-04-24 22:33 20.93275 -156.42354 3911 ft 206 kts 305°
2026-04-24 22:33 20.93585 -156.43903 4900 ft 231 kts 262°
2026-04-24 22:33 20.92826 -156.45489 5794 ft 254 kts 226°
2026-04-24 22:34 20.91624 -156.46907 6937 ft 268 kts 227°
2026-04-24 22:34 20.90322 -156.48426 8196 ft 278 kts 227°
2026-04-24 22:34 20.88998 -156.49968 9538 ft 285 kts 228°
2026-04-24 22:34 20.87649 -156.51537 10822 ft 290 kts 231°
2026-04-24 22:35 20.86591 -156.53431 11526 ft 309 kts 253°
2026-04-24 22:35 20.86187 -156.55733 12075 ft 330 kts 266°
2026-04-24 22:35 20.85951 -156.58259 12668 ft 350 kts 265°
2026-04-24 22:35 20.85583 -156.60853 13712 ft 354 kts 262°
2026-04-24 22:36 20.85071 -156.63457 14677 ft 362 kts 259°
2026-04-24 22:36 20.84456 -156.66079 15419 ft 367 kts 257°
2026-04-24 22:36 20.83786 -156.68723 15774 ft 370 kts 257°
2026-04-24 22:36 20.83094 -156.71375 15955 ft 372 kts 256°
2026-04-24 22:37 20.82397 -156.74038 16014 ft 372 kts 256°
2026-04-24 22:37 20.81708 -156.76673 16019 ft 372 kts 256°
2026-04-24 22:37 20.81005 -156.79373 16014 ft 372 kts 256°
2026-04-24 22:37 20.80323 -156.81999 16024 ft 372 kts 256°
2026-04-24 22:38 20.79631 -156.84661 16030 ft 372 kts 256°
2026-04-24 22:38 20.78938 -156.87323 16026 ft 372 kts 256°
2026-04-24 22:38 20.78246 -156.89984 16028 ft 372 kts 256°
2026-04-24 22:38 20.77552 -156.92651 16027 ft 372 kts 256°
2026-04-24 22:39 20.76862 -156.95302 16028 ft 372 kts 256°
2026-04-24 22:39 20.76162 -156.97985 16031 ft 373 kts 256°
2026-04-24 22:39 20.75469 -157.00643 16023 ft 372 kts 256°
2026-04-24 22:39 20.74774 -157.03307 16027 ft 373 kts 256°
2026-04-24 22:40 20.74077 -157.05978 16024 ft 373 kts 256°
2026-04-24 22:40 20.73390 -157.08607 16017 ft 373 kts 256°
2026-04-24 22:40 20.72691 -157.11278 16009 ft 372 kts 256°
2026-04-24 22:40 20.71995 -157.13940 16009 ft 373 kts 256°
2026-04-24 22:41 20.71297 -157.16609 16002 ft 373 kts 256°
2026-04-24 22:41 20.70598 -157.19275 15994 ft 373 kts 256°
2026-04-24 22:41 20.69899 -157.21942 15991 ft 373 kts 256°
2026-04-24 22:41 20.69201 -157.24604 15981 ft 373 kts 256°
2026-04-24 22:42 20.68500 -157.27274 15974 ft 373 kts 256°
2026-04-24 22:42 20.67987 -157.29937 15963 ft 369 kts 269°
2026-04-24 22:42 20.68241 -157.32626 15776 ft 362 kts 287°
2026-04-24 22:42 20.69275 -157.35041 15298 ft 357 kts 306°
2026-04-24 22:43 20.70959 -157.36945 14704 ft 352 kts 324°
2026-04-24 22:43 20.73093 -157.38172 14121 ft 348 kts 341°
2026-04-24 22:43 20.75456 -157.38636 13515 ft 345 kts 359°
2026-04-24 22:43 20.77757 -157.38331 12896 ft 343 kts 15°
2026-04-24 22:44 20.79919 -157.37275 12271 ft 343 kts 33°
2026-04-24 22:44 20.81671 -157.35570 11667 ft 343 kts 50°
2026-04-24 22:44 20.82859 -157.33368 11069 ft 343 kts 68°
2026-04-24 22:44 20.83358 -157.30920 10502 ft 343 kts 86°
2026-04-24 22:45 20.83130 -157.28406 10112 ft 336 kts 103°
2026-04-24 22:45 20.82607 -157.26034 9972 ft 321 kts 102°
2026-04-24 22:45 20.82260 -157.23750 9836 ft 304 kts 88°
2026-04-24 22:45 20.82706 -157.21623 9711 ft 287 kts 62°
2026-04-24 22:46 20.83910 -157.19996 9474 ft 278 kts 37°
2026-04-24 22:46 20.85633 -157.19099 9091 ft 275 kts 12°
2026-04-24 22:46 20.87523 -157.19047 8672 ft 274 kts 348°
2026-04-24 22:46 20.89270 -157.19826 8262 ft 274 kts 324°
2026-04-24 22:47 20.90541 -157.21280 8048 ft 275 kts 302°
2026-04-24 22:47 20.91532 -157.23037 7984 ft 276 kts 301°
2026-04-24 22:47 20.92526 -157.24789 7979 ft 275 kts 302°
2026-04-24 22:47 20.93529 -157.26539 7986 ft 276 kts 302°
2026-04-24 22:48 20.94533 -157.28282 7981 ft 276 kts 302°
2026-04-24 22:48 20.95543 -157.30032 7987 ft 276 kts 302°
2026-04-24 22:48 20.96547 -157.31772 7982 ft 276 kts 302°
2026-04-24 22:48 20.97556 -157.33522 7986 ft 276 kts 302°
2026-04-24 22:49 20.98549 -157.35247 7980 ft 276 kts 302°
2026-04-24 22:49 20.99554 -157.36994 7977 ft 276 kts 302°
2026-04-24 22:49 21.00559 -157.38741 7982 ft 276 kts 302°
2026-04-24 22:49 21.01566 -157.40495 7971 ft 276 kts 302°
2026-04-24 22:50 21.02573 -157.42249 7976 ft 276 kts 302°
2026-04-24 22:50 21.03583 -157.44007 7972 ft 276 kts 302°
2026-04-24 22:50 21.04586 -157.45757 7981 ft 276 kts 302°
2026-04-24 22:50 21.05593 -157.47510 7971 ft 276 kts 303°
2026-04-24 22:51 21.06663 -157.49213 7978 ft 276 kts 306°
2026-04-24 22:51 21.07700 -157.50913 7977 ft 277 kts 295°
2026-04-24 22:51 21.08091 -157.52922 7986 ft 279 kts 268°
2026-04-24 22:51 21.07593 -157.54919 7981 ft 280 kts 244°
2026-04-24 22:52 21.06935 -157.56870 7962 ft 279 kts 263°
2026-04-24 22:52 21.07072 -157.58909 7692 ft 277 kts 285°
2026-04-24 22:52 21.07648 -157.60903 7144 ft 284 kts 290°
2026-04-24 22:52 21.08307 -157.62900 6704 ft 285 kts 290°
2026-04-24 22:53 21.08945 -157.64904 6288 ft 284 kts 289°
2026-04-24 22:53 21.09541 -157.66909 5866 ft 283 kts 288°
2026-04-24 22:53 21.09967 -157.68404 5577 ft 282 kts 288°
2026-04-24 22:53 21.10524 -157.70414 5162 ft 282 kts 288°
2026-04-24 22:54 21.11071 -157.72420 4755 ft 281 kts 288°
2026-04-24 22:54 21.11615 -157.74419 4378 ft 278 kts 288°
2026-04-24 22:54 21.12154 -157.76406 3958 ft 278 kts 288°
2026-04-24 22:54 21.12684 -157.78358 3562 ft 276 kts 288°
2026-04-24 22:55 21.13220 -157.80325 3201 ft 274 kts 289°
2026-04-24 22:55 21.13748 -157.82265 3046 ft 269 kts 289°
2026-04-24 22:55 21.14282 -157.84219 3016 ft 276 kts 289°
2026-04-24 22:55 21.14820 -157.86185 3019 ft 275 kts 289°
2026-04-24 22:56 21.15365 -157.88172 3020 ft 279 kts 289°
2026-04-24 22:56 21.15898 -157.90125 3021 ft 277 kts 289°
2026-04-24 22:56 21.16443 -157.92126 3012 ft 274 kts 289°
2026-04-24 22:56 21.16961 -157.94036 2955 ft 265 kts 289°
2026-04-24 22:57 21.17470 -157.95914 2862 ft 254 kts 289°
2026-04-24 22:57 21.17946 -157.97673 2703 ft 246 kts 289°
2026-04-24 22:57 21.18419 -157.99414 2494 ft 242 kts 289°
2026-04-24 22:57 21.18891 -158.01141 2206 ft 242 kts 289°
2026-04-24 22:58 21.19405 -158.02840 2032 ft 235 kts 301°
2026-04-24 22:58 21.20492 -158.04113 2008 ft 231 kts 334°
2026-04-24 22:58 21.21982 -158.04527 2018 ft 221 kts
2026-04-24 22:58 21.23390 -158.04022 2018 ft 212 kts 37°
2026-04-24 22:59 21.24360 -158.02887 2022 ft 209 kts 54°
2026-04-24 22:59 21.25227 -158.01629 2018 ft 209 kts 54°
2026-04-24 22:59 21.26757 -157.99464 1847 ft 162 kts 51°
2026-04-24 23:00 21.27440 -157.98504 1794 ft 163 kts 51°
2026-04-24 23:00 21.28128 -157.97549 1704 ft 164 kts 53°
2026-04-24 23:00 21.28822 -157.96589 1478 ft 162 kts 52°
2026-04-24 23:00 21.29525 -157.95669 1218 ft 157 kts 51°
2026-04-24 23:01 21.30164 -157.94731 838 ft 157 kts 52°
2026-04-24 23:01 21.30826 -157.93771 589 ft 151 kts 53°
2026-04-24 23:01 21.31404 -157.92934 204 ft 129 kts 49°
2026-04-24 23:01 21.31948 -157.92168 29 ft 125 kts 50°
2026-04-24 23:02 21.32366 -157.91583 16 ft 61 kts 53°
2026-04-24 23:02 21.32503 -157.91392 15 ft 30 kts 50°
2026-04-24 23:02 21.32682 -157.91309 17 ft 28 kts 18°
2026-04-24 23:02 21.32769 -157.91358 17 ft 16 kts 276°
2026-04-24 23:03 21.32779 -157.91498 19 ft 13 kts 286°
2026-04-24 23:03 21.32789 -157.91506 18 ft 0 kts 356°
2026-04-24 23:03 21.32805 -157.91506 18 ft 9 kts 358°
2026-04-24 23:03 21.32850 -157.91505 19 ft 7 kts 359°
2026-04-24 23:04 21.32876 -157.91505 19 ft 0 kts 359°
2026-04-24 23:04 21.32885 -157.91506 20 ft 0 kts 356°